| time (UTC) | temp F | wind direction | speed MPH | gust MPH | rain 1hr in | rain 24hr in | rain mn in | humidity % | barometer mb |
| 20260901070551 | 73 | 236 | 4.0 | 11.0 | 0.00 | 0.70 | 0.00 | 53 | 1013.5 |
| 20260901070022 | 73 | 281 | 3.0 | 8.0 | 0.00 | 0.70 | 0.00 | 53 | 1013.5 |
| 20260901065519 | 73 | 275 | 4.0 | 10.0 | 0.00 | 0.70 | 0.00 | 53 | 1013.4 |
| 20260901065253 | 73 | 213 | 4.0 | 10.0 | 0.00 | 0.70 | 0.00 | 54 | 1013.5 |
| 20260901064517 | 73 | 271 | 3.0 | 10.0 | 0.00 | 0.70 | 0.00 | 54 | 1013.6 |
| 20260901064017 | 72 | 257 | 2.0 | 9.0 | 0.00 | 0.70 | 0.00 | 55 | 1013.5 |
| 20260901063456 | 71 | 215 | 3.0 | 8.0 | 0.00 | 0.70 | 0.00 | 58 | 1013.5 |
| 20260901062934 | 70 | 250 | 2.0 | 8.0 | 0.00 | 0.70 | 0.00 | 61 | 1013.6 |
| 20260901062412 | 66 | 261 | 1.0 | 7.0 | 0.00 | 0.70 | 0.00 | 67 | 1013.6 |
| 20260901061846 | 65 | 222 | 0.0 | 2.0 | 0.00 | 0.70 | 0.00 | 73 | 1013.7 |
| 20260901061346 | 65 | 222 | 0.0 | 3.0 | 0.00 | 0.70 | 0.00 | 73 | 1013.7 |
| 20260901060846 | 65 | 222 | 0.0 | 3.0 | 0.00 | 0.71 | 0.00 | 72 | 1013.7 |
| 20260901060320 | 64 | 225 | 0.0 | 0.0 | 0.00 | 0.71 | 0.00 | 73 | 1013.7 |
| 20260901060023 | 64 | 225 | 0.0 | 0.0 | 0.00 | 0.71 | 0.00 | 73 | 1013.6 |
| 20260901055234 | 64 | 225 | 0.0 | 0.0 | 0.00 | 0.72 | 0.00 | 74 | 1013.6 |
| 20260901054732 | 64 | 225 | 0.0 | 0.0 | 0.00 | 0.73 | 0.00 | 73 | 1013.6 |
| 20260901054231 | 65 | 225 | 0.0 | 0.0 | 0.00 | 0.76 | 0.00 | 73 | 1013.5 |
| 20260901053735 | 65 | 225 | 0.0 | 0.0 | 0.00 | 0.79 | 0.00 | 74 | 1013.4 |
| 20260901053232 | 65 | 225 | 0.0 | 0.0 | 0.00 | 0.81 | 0.00 | 74 | 1013.5 |
| 20260901052730 | 66 | 225 | 0.0 | 0.0 | 0.00 | 0.84 | 0.00 | 74 | 1013.5 |
| 20260901052202 | 65 | 225 | 0.0 | 0.0 | 0.00 | 0.85 | 0.00 | 74 | 1013.5 |
| 20260901051701 | 66 | 225 | 0.0 | 0.0 | 0.00 | 0.86 | 0.00 | 73 | 1013.6 |
| 20260901051134 | 66 | 225 | 0.0 | 0.0 | 0.00 | 0.87 | 0.00 | 74 | 1013.5 |
| 20260901050609 | 66 | 225 | 0.0 | 0.0 | 0.00 | 0.87 | 0.00 | 74 | 1013.6 |
| 20260901050043 | 66 | 225 | 0.0 | 0.0 | 0.00 | 0.87 | 0.00 | 73 | 1013.6 |
| 20260901045524 | 66 | 225 | 0.0 | 0.0 | 0.00 | 0.87 | 0.87 | 73 | 1013.6 |
| 20260901045005 | 66 | 225 | 0.0 | 0.0 | 0.00 | 0.87 | 0.87 | 73 | 1013.5 |
| 20260901044737 | 67 | 225 | 0.0 | 2.0 | 0.00 | 0.87 | 0.87 | 73 | 1013.4 |
| 20260901044217 | 67 | 225 | 0.0 | 2.0 | 0.00 | 0.87 | 0.87 | 73 | 1013.5 |
| 20260901043444 | 67 | 225 | 0.0 | 2.0 | 0.00 | 0.87 | 0.87 | 71 | 1013.6 |
| 20260901042944 | 67 | 225 | 0.0 | 2.0 | 0.00 | 0.88 | 0.87 | 70 | 1013.5 |
| 20260901042658 | 68 | 225 | 0.0 | 2.0 | 0.00 | 0.89 | 0.87 | 71 | 1013.4 |
| 20260901041904 | 68 | 225 | 0.0 | 2.0 | 0.00 | 0.90 | 0.87 | 69 | 1013.4 |
| 20260901041401 | 69 | 225 | 0.0 | 0.0 | 0.00 | 0.93 | 0.87 | 67 | 1013.4 |
| 20260901040838 | 69 | 225 | 0.0 | 0.0 | 0.00 | 1.06 | 0.87 | 66 | 1013.5 |
| 20260901040550 | 70 | 225 | 0.0 | 0.0 | 0.00 | 1.11 | 0.87 | 65 | 1013.4 |
| 20260901035816 | 71 | 225 | 0.0 | 2.0 | 0.00 | 1.11 | 0.87 | 63 | 1013.4 |
| 20260901035255 | 72 | 225 | 1.0 | 4.0 | 0.00 | 1.11 | 0.87 | 61 | 1013.3 |
| 20260901034749 | 73 | 227 | 2.0 | 6.0 | 0.00 | 1.11 | 0.87 | 58 | 1013.3 |
| 20260901034223 | 74 | 277 | 3.0 | 6.0 | 0.00 | 1.11 | 0.87 | 57 | 1013.1 |
| 20260901033657 | 74 | 277 | 3.0 | 7.0 | 0.00 | 1.11 | 0.87 | 57 | 1013.2 |
| 20260901033429 | 74 | 271 | 4.0 | 8.0 | 0.00 | 1.11 | 0.87 | 57 | 1013.2 |
| 20260901032926 | 74 | 266 | 4.0 | 8.0 | 0.00 | 1.11 | 0.87 | 57 | 1013.0 |
| 20260901032155 | 74 | 288 | 3.0 | 7.0 | 0.00 | 1.11 | 0.87 | 56 | 1013.0 |
| 20260901031629 | 74 | 265 | 3.0 | 9.0 | 0.00 | 1.11 | 0.87 | 56 | 1013.1 |
| 20260901031127 | 74 | 288 | 3.0 | 9.0 | 0.00 | 1.11 | 0.87 | 56 | 1013.1 |
| 20260901030559 | 74 | 280 | 3.0 | 6.0 | 0.00 | 1.11 | 0.87 | 55 | 1013.0 |
| 20260901030032 | 74 | 306 | 2.0 | 6.0 | 0.00 | 1.11 | 0.87 | 55 | 1013.0 |
| 20260901025529 | 74 | 275 | 2.0 | 6.0 | 0.00 | 1.11 | 0.87 | 54 | 1013.1 |
| 20260901025001 | 75 | 300 | 3.0 | 8.0 | 0.00 | 1.11 | 0.87 | 54 | 1013.1 |
| 20260901024500 | 75 | 274 | 3.0 | 7.0 | 0.00 | 1.11 | 0.87 | 54 | 1013.1 |
| 20260901023931 | 75 | 274 | 2.0 | 7.0 | 0.00 | 1.11 | 0.87 | 54 | 1013.0 |
| 20260901023700 | 74 | 275 | 2.0 | 7.0 | 0.00 | 1.11 | 0.87 | 54 | 1013.0 |
| 20260901023156 | 74 | 266 | 2.0 | 6.0 | 0.00 | 1.11 | 0.87 | 55 | 1012.9 |
| 20260901022421 | 74 | 269 | 2.0 | 6.0 | 0.00 | 1.11 | 0.87 | 56 | 1013.1 |
| 20260901022127 | 73 | 279 | 3.0 | 6.0 | 0.00 | 1.11 | 0.87 | 57 | 1013.0 |
| 20260901021351 | 73 | 270 | 1.0 | 4.0 | 0.00 | 1.11 | 0.87 | 57 | 1013.0 |
| 20260901020848 | 72 | 274 | 0.0 | 2.0 | 0.00 | 1.11 | 0.87 | 60 | 1012.9 |
| 20260901020342 | 73 | 273 | 0.0 | 2.0 | 0.00 | 1.11 | 0.87 | 59 | 1013.0 |
| 20260901015839 | 74 | 273 | 2.0 | 6.0 | 0.00 | 1.11 | 0.87 | 58 | 1013.0 |
| 20260901015310 | 75 | 277 | 4.0 | 7.0 | 0.00 | 1.11 | 0.87 | 54 | 1012.9 |
| 20260901014807 | 75 | 283 | 4.0 | 7.0 | 0.00 | 1.11 | 0.87 | 54 | 1012.8 |
| 20260901014742 | 75 | 268 | 4.0 | 7.0 | 0.00 | 1.11 | 0.87 | 55 | 1012.9 |
| 20260901013738 | 75 | 282 | 4.0 | 7.0 | 0.00 | 1.11 | 0.87 | 55 | 1012.8 |
| 20260901013209 | 75 | 285 | 4.0 | 7.0 | 0.00 | 1.11 | 0.87 | 56 | 1012.8 |
| 20260901012918 | 75 | 277 | 4.0 | 7.0 | 0.00 | 1.11 | 0.87 | 59 | 1012.7 |
| 20260901012141 | 74 | 275 | 3.0 | 6.0 | 0.00 | 1.11 | 0.87 | 62 | 1012.6 |
| 20260901012137 | 74 | 269 | 4.0 | 7.0 | 0.00 | 1.11 | 0.87 | 59 | 1012.8 |
| 20260901011109 | 73 | 278 | 3.0 | 6.0 | 0.00 | 1.11 | 0.87 | 64 | 1012.6 |
| 20260901010541 | 72 | 274 | 3.0 | 4.0 | 0.00 | 1.11 | 0.87 | 68 | 1012.5 |
| 20260901010308 | 71 | 271 | 2.0 | 4.0 | 0.00 | 1.11 | 0.87 | 71 | 1012.5 |
| 20260901005535 | 71 | 214 | 2.0 | 3.0 | 0.00 | 1.11 | 0.87 | 73 | 1012.5 |
| 20260901005033 | 71 | 194 | 1.0 | 3.0 | 0.00 | 1.11 | 0.87 | 76 | 1012.5 |
| 20260901004506 | 71 | 185 | 0.0 | 2.0 | 0.00 | 1.11 | 0.87 | 77 | 1012.6 |
| 20260901004003 | 72 | 184 | 0.0 | 0.0 | 0.00 | 1.11 | 0.87 | 77 | 1012.5 |
| 20260901003436 | 72 | 184 | 0.0 | 2.0 | 0.00 | 1.11 | 0.87 | 76 | 1012.5 |
| 20260901002933 | 73 | 184 | 1.0 | 2.0 | 0.00 | 1.11 | 0.87 | 76 | 1012.4 |
| 20260901002405 | 73 | 184 | 1.0 | 2.0 | 0.00 | 1.11 | 0.87 | 75 | 1012.4 |
| 20260901001904 | 74 | 180 | 0.0 | 2.0 | 0.00 | 1.11 | 0.87 | 75 | 1012.3 |
| 20260901001338 | 75 | 180 | 0.0 | 2.0 | 0.00 | 1.11 | 0.87 | 75 | 1012.3 |
| 20260901000815 | 75 | 180 | 0.0 | 2.0 | 0.00 | 1.11 | 0.87 | 74 | 1012.2 |
| 20260901000314 | 76 | 180 | 0.0 | 2.0 | 0.00 | 1.11 | 0.87 | 73 | 1012.2 |
| 20260831235748 | 77 | 180 | 0.0 | 2.0 | 0.00 | 1.11 | 0.87 | 72 | 1012.2 |
| 20260831235219 | 77 | 180 | 0.0 | 2.0 | 0.00 | 1.11 | 0.87 | 69 | 1012.2 |
| 20260831234717 | 78 | 180 | 0.0 | 2.0 | 0.00 | 1.11 | 0.87 | 71 | 1012.1 |
| 20260831234150 | 78 | 180 | 0.0 | 2.0 | 0.00 | 1.11 | 0.87 | 67 | 1012.2 |
| 20260831233647 | 78 | 180 | 1.0 | 2.0 | 0.00 | 1.11 | 0.87 | 70 | 1012.2 |
| 20260831233119 | 79 | 180 | 0.0 | 2.0 | 0.00 | 1.11 | 0.87 | 68 | 1012.1 |
| 20260831232617 | 79 | 180 | 0.0 | 2.0 | 0.00 | 1.11 | 0.87 | 68 | 1012.2 |
| 20260831232109 | 79 | 180 | 0.0 | 0.0 | 0.00 | 1.11 | 0.87 | 71 | 1012.1 |
| 20260831231607 | 78 | 180 | 0.0 | 2.0 | 0.00 | 1.11 | 0.87 | 71 | 1012.1 |
| 20260831231100 | 77 | 180 | 0.0 | 2.0 | 0.00 | 1.11 | 0.87 | 71 | 1012.2 |
| 20260831230556 | 77 | 180 | 1.0 | 2.0 | 0.00 | 1.11 | 0.87 | 71 | 1012.2 |
| 20260831230028 | 76 | 180 | 1.0 | 2.0 | 0.00 | 1.11 | 0.87 | 71 | 1012.2 |
| 20260831225509 | 76 | 180 | 1.0 | 2.0 | 0.00 | 1.11 | 0.87 | 71 | 1012.1 |
| 20260831225007 | 76 | 180 | 1.0 | 2.0 | 0.00 | 1.11 | 0.87 | 71 | 1011.9 |
| 20260831224739 | 75 | 180 | 1.0 | 2.0 | 0.00 | 1.11 | 0.87 | 72 | 1011.9 |
| 20260831224008 | 74 | 180 | 1.0 | 3.0 | 0.00 | 1.11 | 0.87 | 73 | 1011.9 |
| 20260831223505 | 73 | 180 | 1.0 | 3.0 | 0.00 | 1.11 | 0.87 | 73 | 1011.9 |
| 20260831222938 | 73 | 177 | 1.0 | 2.0 | 0.00 | 1.11 | 0.87 | 75 | 1012.0 |
| 20260831222434 | 72 | 177 | 2.0 | 4.0 | 0.00 | 1.11 | 0.87 | 75 | 1012.1 |
| 20260831221907 | 72 | 171 | 3.0 | 6.0 | 0.00 | 1.11 | 0.87 | 73 | 1012.2 |
| 20260831221340 | 73 | 164 | 3.0 | 6.0 | 0.00 | 1.11 | 0.87 | 72 | 1012.1 |
| 20260831220837 | 74 | 168 | 2.0 | 6.0 | 0.00 | 1.11 | 0.87 | 72 | 1012.0 |
| 20260831220310 | 74 | 167 | 3.0 | 6.0 | 0.00 | 1.11 | 0.87 | 72 | 1012.0 |
| 20260831215806 | 75 | 168 | 2.0 | 5.0 | 0.00 | 1.11 | 0.87 | 71 | 1012.0 |
| 20260831215306 | 75 | 169 | 2.0 | 5.0 | 0.00 | 1.11 | 0.87 | 71 | 1011.9 |
| 20260831214805 | 75 | 168 | 2.0 | 4.0 | 0.00 | 1.11 | 0.87 | 71 | 1011.9 |
| 20260831214301 | 75 | 172 | 2.0 | 4.0 | 0.00 | 1.11 | 0.87 | 72 | 1011.9 |
| 20260831213759 | 74 | 170 | 2.0 | 5.0 | 0.00 | 1.11 | 0.87 | 74 | 1012.0 |
| 20260831213231 | 74 | 170 | 2.0 | 5.0 | 0.00 | 1.11 | 0.87 | 73 | 1012.1 |
| 20260831212733 | 74 | 165 | 3.0 | 5.0 | 0.00 | 1.11 | 0.87 | 73 | 1012.1 |
| 20260831212229 | 74 | 165 | 3.0 | 6.0 | 0.00 | 1.11 | 0.87 | 74 | 1012.0 |
| 20260831211728 | 74 | 166 | 2.0 | 6.0 | 0.00 | 1.11 | 0.87 | 73 | 1012.1 |
| 20260831211202 | 74 | 159 | 2.0 | 6.0 | 0.00 | 1.11 | 0.87 | 75 | 1012.1 |
| 20260831210931 | 74 | 154 | 2.0 | 6.0 | 0.00 | 1.11 | 0.87 | 74 | 1012.1 |
| 20260831210404 | 74 | 184 | 2.0 | 5.0 | 0.00 | 1.11 | 0.87 | 75 | 1012.1 |
| 20260831205629 | 73 | 186 | 2.0 | 5.0 | 0.00 | 1.11 | 0.87 | 75 | 1012.1 |
| 20260831205128 | 73 | 180 | 2.0 | 5.0 | 0.00 | 1.11 | 0.87 | 75 | 1012.1 |
| 20260831204607 | 73 | 190 | 3.0 | 5.0 | 0.00 | 1.11 | 0.87 | 75 | 1012.1 |
| 20260831204336 | 73 | 178 | 2.0 | 5.0 | 0.00 | 1.11 | 0.87 | 75 | 1012.2 |
| 20260831203550 | 73 | 163 | 2.0 | 5.0 | 0.00 | 1.11 | 0.87 | 75 | 1012.2 |
| 20260831203050 | 73 | 165 | 2.0 | 5.0 | 0.00 | 1.11 | 0.87 | 75 | 1012.2 |
| 20260831202823 | 73 | 167 | 2.0 | 5.0 | 0.00 | 1.11 | 0.87 | 75 | 1012.1 |
| 20260831202033 | 73 | 153 | 2.0 | 5.0 | 0.00 | 1.11 | 0.87 | 77 | 1012.1 |
| 20260831201519 | 72 | 107 | 2.0 | 5.0 | 0.00 | 1.11 | 0.87 | 76 | 1012.1 |
| 20260831201514 | 72 | 49 | 2.0 | 5.0 | 0.00 | 1.11 | 0.87 | 77 | 1012.1 |
| 20260831200457 | 71 | 163 | 2.0 | 4.0 | 0.00 | 1.11 | 0.87 | 77 | 1012.1 |
| 20260831195958 | 71 | 161 | 3.0 | 4.0 | 0.00 | 1.11 | 0.87 | 78 | 1012.2 |
| 20260831195434 | 71 | 146 | 3.0 | 4.0 | 0.00 | 1.11 | 0.87 | 77 | 1012.1 |
| 20260831194914 | 72 | 155 | 2.0 | 5.0 | 0.00 | 1.11 | 0.87 | 77 | 1012.0 |
| 20260831194351 | 71 | 136 | 2.0 | 5.0 | 0.00 | 1.11 | 0.87 | 78 | 1012.2 |
| 20260831193828 | 71 | 141 | 2.0 | 5.0 | 0.00 | 1.11 | 0.87 | 80 | 1012.2 |
| 20260831193328 | 70 | 159 | 2.0 | 5.0 | 0.00 | 1.11 | 0.87 | 80 | 1012.2 |
| 20260831192813 | 70 | 144 | 2.0 | 4.0 | 0.00 | 1.11 | 0.87 | 80 | 1012.2 |
| 20260831192312 | 69 | 144 | 2.0 | 6.0 | 0.00 | 1.11 | 0.87 | 82 | 1012.2 |
| 20260831191807 | 69 | 144 | 2.0 | 6.0 | 0.00 | 1.11 | 0.87 | 83 | 1012.2 |
| 20260831191305 | 68 | 148 | 3.0 | 9.0 | 0.00 | 1.11 | 0.87 | 83 | 1012.3 |
| 20260831190806 | 67 | 132 | 4.0 | 9.0 | 0.00 | 1.11 | 0.87 | 83 | 1012.2 |
| 20260831190303 | 68 | 98 | 4.0 | 8.0 | 0.00 | 1.11 | 0.87 | 82 | 1012.1 |
| 20260831190034 | 68 | 127 | 3.0 | 7.0 | 0.00 | 1.11 | 0.87 | 83 | 1012.2 |
| 20260831185258 | 68 | 130 | 3.0 | 7.0 | 0.00 | 1.11 | 0.87 | 84 | 1012.3 |
| 20260831185031 | 68 | 128 | 3.0 | 5.0 | 0.00 | 1.11 | 0.87 | 84 | 1012.2 |
| 20260831184258 | 67 | 156 | 2.0 | 5.0 | 0.00 | 1.11 | 0.87 | 84 | 1012.2 |
| 20260831183754 | 67 | 120 | 1.0 | 3.0 | 0.00 | 1.11 | 0.87 | 85 | 1012.2 |
| 20260831183250 | 67 | 112 | 1.0 | 3.0 | 0.00 | 1.11 | 0.87 | 85 | 1012.3 |
| 20260831182748 | 67 | 111 | 1.0 | 6.0 | 0.00 | 1.11 | 0.87 | 85 | 1012.5 |
| 20260831182226 | 66 | 111 | 1.0 | 6.0 | 0.00 | 1.11 | 0.87 | 85 | 1012.6 |
| 20260831181701 | 66 | 110 | 2.0 | 6.0 | 0.00 | 1.11 | 0.87 | 85 | 1012.5 |
| 20260831181134 | 66 | 105 | 2.0 | 6.0 | 0.00 | 1.11 | 0.87 | 85 | 1012.2 |
| 20260831180613 | 66 | 103 | 2.0 | 4.0 | 0.00 | 1.11 | 0.87 | 85 | 1012.3 |
| 20260831180048 | 66 | 84 | 2.0 | 4.0 | 0.00 | 1.11 | 0.87 | 85 | 1012.3 |
| 20260831175519 | 66 | 111 | 3.0 | 6.0 | 0.00 | 1.11 | 0.87 | 85 | 1012.2 |
| 20260831175018 | 66 | 113 | 3.0 | 6.0 | 0.00 | 1.11 | 0.87 | 85 | 1012.2 |
| 20260831174512 | 66 | 94 | 2.0 | 4.0 | 0.00 | 1.11 | 0.87 | 85 | 1012.2 |
| 20260831174011 | 66 | 106 | 2.0 | 4.0 | 0.00 | 1.11 | 0.87 | 85 | 1012.1 |
| 20260831173443 | 65 | 116 | 2.0 | 4.0 | 0.00 | 1.11 | 0.87 | 85 | 1012.1 |
| 20260831173149 | 65 | 123 | 2.0 | 4.0 | 0.00 | 1.11 | 0.87 | 85 | 1012.2 |
| 20260831172351 | 65 | 139 | 2.0 | 3.0 | 0.00 | 1.11 | 0.87 | 85 | 1012.3 |
| 20260831171826 | 66 | 140 | 1.0 | 3.0 | 0.00 | 1.11 | 0.87 | 84 | 1012.3 |
| 20260831171257 | 66 | 144 | 1.0 | 3.0 | 0.00 | 1.11 | 0.87 | 85 | 1012.3 |
| 20260831170755 | 67 | 146 | 2.0 | 4.0 | 0.00 | 1.11 | 0.87 | 85 | 1012.3 |
| 20260831170226 | 67 | 148 | 1.0 | 4.0 | 0.00 | 1.11 | 0.87 | 85 | 1012.2 |
| 20260831165725 | 67 | 144 | 1.0 | 3.0 | 0.00 | 1.11 | 0.87 | 85 | 1012.2 |
| 20260831165216 | 66 | 144 | 1.0 | 3.0 | 0.00 | 1.11 | 0.87 | 85 | 1012.2 |
| 20260831164715 | 66 | 144 | 0.0 | 2.0 | 0.00 | 1.11 | 0.87 | 85 | 1012.0 |
| 20260831164210 | 66 | 145 | 1.0 | 3.0 | 0.00 | 1.11 | 0.87 | 85 | 1012.1 |
| 20260831164206 | 66 | 145 | 0.0 | 2.0 | 0.00 | 1.11 | 0.87 | 85 | 1012.0 |
| 20260831163137 | 67 | 146 | 1.0 | 3.0 | 0.00 | 1.11 | 0.87 | 85 | 1012.0 |
| 20260831162635 | 67 | 148 | 1.0 | 3.0 | 0.00 | 1.11 | 0.87 | 85 | 1011.9 |
| 20260831162106 | 67 | 150 | 1.0 | 3.0 | 0.00 | 1.12 | 0.87 | 85 | 1011.9 |
| 20260831161604 | 67 | 150 | 1.0 | 3.0 | 0.00 | 1.12 | 0.87 | 85 | 1011.9 |
| 20260831161036 | 67 | 151 | 0.0 | 3.0 | 0.00 | 1.12 | 0.87 | 85 | 1011.9 |
| 20260831160508 | 67 | 153 | 0.0 | 2.0 | 0.00 | 1.12 | 0.87 | 85 | 1011.9 |
| 20260831160006 | 67 | 153 | 1.0 | 3.0 | 0.00 | 1.12 | 0.87 | 85 | 1011.8 |
| 20260831155440 | 66 | 153 | 0.0 | 3.0 | 0.00 | 1.12 | 0.87 | 85 | 1011.9 |
| 20260831154912 | 66 | 153 | 0.0 | 2.0 | 0.00 | 1.13 | 0.87 | 85 | 1011.7 |
| 20260831154410 | 66 | 153 | 0.0 | 2.0 | 0.00 | 1.13 | 0.87 | 85 | 1011.7 |
| 20260831153843 | 66 | 153 | 0.0 | 2.0 | 0.00 | 1.14 | 0.87 | 85 | 1011.5 |
| 20260831153316 | 66 | 153 | 0.0 | 1.0 | 0.00 | 1.15 | 0.87 | 85 | 1011.5 |
| 20260831152813 | 66 | 153 | 0.0 | 2.0 | 0.00 | 1.15 | 0.87 | 85 | 1011.4 |
| 20260831152248 | 65 | 153 | 0.0 | 2.0 | 0.00 | 1.16 | 0.87 | 85 | 1011.4 |
| 20260831151720 | 65 | 153 | 1.0 | 3.0 | 0.00 | 1.16 | 0.87 | 85 | 1011.5 |
| 20260831151217 | 65 | 153 | 1.0 | 3.0 | 0.00 | 1.16 | 0.87 | 85 | 1011.5 |
| 20260831150945 | 65 | 153 | 1.0 | 2.0 | 0.00 | 1.17 | 0.87 | 85 | 1011.3 |
| 20260831150829 | 65 | 152 | 0.0 | 2.0 | 0.00 | 1.17 | 0.87 | 85 | 1011.1 |
| 20260831145700 | 65 | 152 | 0.0 | 2.0 | 0.00 | 1.17 | 0.87 | 85 | 1011.1 |
| 20260831145202 | 65 | 152 | 1.0 | 3.0 | 0.00 | 1.17 | 0.87 | 85 | 1011.1 |
| 20260831144634 | 65 | 152 | 1.0 | 5.0 | 0.00 | 1.17 | 0.87 | 85 | 1011.1 |
| 20260831144132 | 66 | 151 | 1.0 | 5.0 | 0.00 | 1.17 | 0.87 | 84 | 1011.0 |
| 20260831143606 | 66 | 146 | 1.0 | 4.0 | 0.00 | 1.17 | 0.87 | 85 | 1011.0 |
| 20260831143102 | 67 | 145 | 1.0 | 4.0 | 0.00 | 1.17 | 0.87 | 85 | 1011.0 |
| 20260831142559 | 67 | 87 | 0.0 | 3.0 | 0.00 | 1.17 | 0.87 | 85 | 1010.8 |
| 20260831142052 | 67 | 58 | 0.0 | 0.0 | 0.00 | 1.17 | 0.87 | 85 | 1010.9 |
| 20260831141550 | 67 | 56 | 0.0 | 0.0 | 0.00 | 1.17 | 0.87 | 85 | 1010.8 |
| 20260831141252 | 67 | 55 | 0.0 | 0.0 | 0.00 | 1.17 | 0.87 | 85 | 1010.7 |
| 20260831140520 | 67 | 53 | 0.0 | 0.0 | 0.00 | 1.17 | 0.87 | 85 | 1010.7 |
| 20260831140224 | 67 | 49 | 0.0 | 0.0 | 0.00 | 1.17 | 0.87 | 85 | 1010.6 |
| 20260831135449 | 67 | 48 | 0.0 | 0.0 | 0.00 | 1.17 | 0.87 | 85 | 1010.6 |
| 20260831134924 | 67 | 46 | 0.0 | 0.0 | 0.00 | 1.17 | 0.87 | 85 | 1010.5 |
| 20260831134400 | 67 | 46 | 0.0 | 0.0 | 0.00 | 1.17 | 0.87 | 85 | 1010.3 |
| 20260831133858 | 67 | 45 | 0.0 | 0.0 | 0.00 | 1.17 | 0.87 | 85 | 1010.4 |
| 20260831133331 | 67 | 45 | 0.0 | 0.0 | 0.00 | 1.17 | 0.87 | 85 | 1010.3 |
| 20260831132829 | 67 | 44 | 0.0 | 0.0 | 0.00 | 1.17 | 0.87 | 85 | 1010.2 |
| 20260831132556 | 67 | 44 | 0.0 | 0.0 | 0.00 | 1.17 | 0.87 | 85 | 1010.3 |
| 20260831131800 | 67 | 44 | 0.0 | 0.0 | 0.00 | 1.17 | 0.87 | 85 | 1010.4 |
| 20260831131527 | 67 | 44 | 0.0 | 0.0 | 0.00 | 1.17 | 0.87 | 85 | 1010.5 |
| 20260831130754 | 66 | 44 | 0.0 | 0.0 | 0.00 | 1.17 | 0.87 | 85 | 1010.5 |
| 20260831130227 | 66 | 44 | 0.0 | 2.0 | 0.00 | 1.17 | 0.87 | 85 | 1010.6 |
| 20260831125726 | 66 | 44 | 0.0 | 2.0 | 0.00 | 1.17 | 0.87 | 85 | 1010.7 |
| 20260831125439 | 66 | 44 | 0.0 | 1.0 | 0.00 | 1.17 | 0.87 | 85 | 1010.7 |
| 20260831124706 | 66 | 44 | 0.0 | 2.0 | 0.00 | 1.17 | 0.87 | 85 | 1010.7 |
| 20260831124206 | 66 | 44 | 0.0 | 2.0 | 0.00 | 1.17 | 0.87 | 85 | 1010.6 |
| 20260831123704 | 66 | 44 | 0.0 | 1.0 | 0.00 | 1.17 | 0.87 | 85 | 1010.7 |
| 20260831123208 | 66 | 44 | 0.0 | 0.0 | 0.00 | 1.17 | 0.87 | 85 | 1010.6 |
| 20260831122642 | 66 | 44 | 0.0 | 1.0 | 0.00 | 1.17 | 0.87 | 85 | 1010.7 |
| 20260831122139 | 66 | 44 | 0.0 | 3.0 | 0.00 | 1.17 | 0.87 | 85 | 1010.6 |
| 20260831121615 | 66 | 44 | 0.0 | 3.0 | 0.00 | 1.17 | 0.87 | 85 | 1010.4 |
| 20260831121048 | 66 | 42 | 0.0 | 2.0 | 0.00 | 1.17 | 0.87 | 85 | 1010.7 |
| 20260831120521 | 66 | 43 | 1.0 | 2.0 | 0.00 | 1.17 | 0.87 | 85 | 1010.5 |
| 20260831120009 | 66 | 40 | 1.0 | 2.0 | 0.00 | 1.17 | 0.87 | 85 | 1010.4 |
| 20260831120005 | 66 | 42 | 1.0 | 2.0 | 0.00 | 1.17 | 0.87 | 85 | 1010.4 |
| 20260831115003 | 65 | 40 | 1.0 | 5.0 | 0.00 | 1.17 | 0.87 | 85 | 1010.5 |
| 20260831114506 | 65 | 39 | 1.0 | 5.0 | 0.00 | 1.17 | 0.87 | 85 | 1010.4 |
| 20260831113946 | 65 | 40 | 2.0 | 5.0 | 0.00 | 1.17 | 0.87 | 85 | 1010.4 |
| 20260831113445 | 65 | 41 | 2.0 | 5.0 | 0.00 | 1.17 | 0.87 | 85 | 1010.2 |
| 20260831113215 | 65 | 70 | 1.0 | 5.0 | 0.00 | 1.17 | 0.87 | 85 | 1010.0 |
| 20260831112447 | 65 | 73 | 1.0 | 6.0 | 0.00 | 1.17 | 0.87 | 85 | 1010.0 |
| 20260831111939 | 65 | 43 | 1.0 | 6.0 | 0.00 | 1.17 | 0.87 | 85 | 1010.1 |
| 20260831111709 | 65 | 24 | 3.0 | 10.0 | 0.00 | 1.17 | 0.87 | 85 | 1010.2 |
| 20260831110927 | 65 | 59 | 4.0 | 10.0 | 0.00 | 1.17 | 0.87 | 85 | 1010.1 |
| 20260831110402 | 65 | 54 | 5.0 | 10.0 | 0.00 | 1.17 | 0.87 | 85 | 1009.9 |
| 20260831110110 | 65 | 87 | 5.0 | 9.0 | 0.00 | 1.17 | 0.87 | 85 | 1009.7 |
| 20260831105322 | 65 | 77 | 2.0 | 9.0 | 0.00 | 1.17 | 0.87 | 85 | 1009.9 |
| 20260831104800 | 65 | 63 | 1.0 | 8.0 | 0.00 | 1.17 | 0.87 | 85 | 1009.9 |
| 20260831104242 | 65 | 62 | 2.0 | 8.0 | 0.01 | 1.17 | 0.87 | 85 | 1010.1 |
| 20260831104013 | 65 | 72 | 2.0 | 8.0 | 0.04 | 1.17 | 0.87 | 85 | 1010.1 |
| 20260831103510 | 65 | 60 | 1.0 | 4.0 | 0.12 | 1.17 | 0.87 | 85 | 1010.3 |
| 20260831102737 | 65 | 64 | 2.0 | 6.0 | 0.40 | 1.17 | 0.87 | 85 | 1010.3 |
| 20260831102235 | 65 | 63 | 2.0 | 6.0 | 0.66 | 1.17 | 0.87 | 85 | 1010.1 |
| 20260831101736 | 65 | 36 | 2.0 | 8.0 | 0.69 | 1.17 | 0.87 | 85 | 1010.2 |
| 20260831101213 | 65 | 46 | 2.0 | 8.0 | 0.69 | 1.17 | 0.87 | 85 | 1010.4 |
| 20260831100712 | 64 | 73 | 2.0 | 8.0 | 0.70 | 1.17 | 0.87 | 85 | 1010.4 |
| 20260831100210 | 64 | 74 | 3.0 | 9.0 | 0.70 | 1.17 | 0.87 | 85 | 1010.3 |
| 20260831095708 | 64 | 111 | 5.0 | 12.0 | 0.70 | 1.17 | 0.87 | 85 | 1010.2 |
| 20260831095202 | 64 | 62 | 5.0 | 15.0 | 0.70 | 1.17 | 0.87 | 85 | 1010.1 |
| 20260831094907 | 64 | 68 | 6.0 | 15.0 | 0.69 | 1.16 | 0.86 | 84 | 1010.0 |
| 20260831094134 | 65 | 69 | 6.0 | 11.0 | 0.69 | 1.16 | 0.86 | 84 | 1009.9 |
| 20260831093631 | 65 | 119 | 5.0 | 11.0 | 0.65 | 1.12 | 0.83 | 84 | 1010.0 |
| 20260831093104 | 65 | 78 | 3.0 | 8.0 | 0.47 | 0.94 | 0.66 | 85 | 1010.4 |
| 20260831092534 | 65 | 165 | 3.0 | 10.0 | 0.17 | 0.64 | 0.34 | 85 | 1011.4 |
| 20260831092034 | 65 | 58 | 4.0 | 10.0 | 0.01 | 0.48 | 0.18 | 85 | 1011.0 |
| 20260831091521 | 65 | 92 | 4.0 | 9.0 | 0.01 | 0.48 | 0.18 | 85 | 1010.4 |
| 20260831091019 | 65 | 23 | 4.0 | 9.0 | 0.00 | 0.47 | 0.17 | 85 | 1010.2 |
| 20260831090454 | 65 | 56 | 4.0 | 9.0 | 0.00 | 0.47 | 0.17 | 85 | 1010.2 |
| 20260831085925 | 65 | 68 | 4.0 | 10.0 | 0.00 | 0.47 | 0.17 | 85 | 1010.1 |
| 20260831085652 | 65 | 66 | 4.0 | 10.0 | 0.00 | 0.47 | 0.17 | 85 | 1010.3 |
| 20260831085150 | 65 | 51 | 5.0 | 12.0 | 0.00 | 0.47 | 0.17 | 85 | 1010.4 |
| 20260831084352 | 65 | 49 | 5.0 | 12.0 | 0.00 | 0.47 | 0.17 | 85 | 1010.2 |
| 20260831083842 | 65 | 16 | 4.0 | 9.0 | 0.00 | 0.47 | 0.17 | 85 | 1010.3 |
| 20260831083314 | 65 | 64 | 5.0 | 9.0 | 0.00 | 0.47 | 0.17 | 85 | 1010.3 |
| 20260831082749 | 65 | 49 | 3.0 | 9.0 | 0.00 | 0.47 | 0.17 | 85 | 1009.9 |
| 20260831082235 | 65 | 68 | 3.0 | 7.0 | 0.00 | 0.47 | 0.17 | 85 | 1009.9 |
| 20260831082009 | 64 | 92 | 3.0 | 7.0 | 0.00 | 0.47 | 0.17 | 84 | 1010.0 |
| 20260831081734 | 64 | 80 | 2.0 | 6.0 | 0.00 | 0.47 | 0.17 | 84 | 1009.9 |
| 20260831080715 | 64 | 74 | 2.0 | 9.0 | 0.00 | 0.47 | 0.17 | 84 | 1010.4 |
| 20260831080709 | 64 | 58 | 3.0 | 7.0 | 0.00 | 0.47 | 0.17 | 84 | 1010.3 |
| 20260831075705 | 64 | 113 | 2.0 | 9.0 | 0.00 | 0.47 | 0.17 | 84 | 1010.3 |
| 20260831075157 | 64 | 80 | 5.0 | 12.0 | 0.00 | 0.47 | 0.17 | 85 | 1010.1 |
| 20260831074925 | 64 | 44 | 5.0 | 10.0 | 0.00 | 0.47 | 0.17 | 85 | 1010.1 |
| 20260831074128 | 64 | 63 | 4.0 | 12.0 | 0.00 | 0.47 | 0.17 | 84 | 1010.2 |
| 20260831073856 | 64 | 71 | 4.0 | 10.0 | 0.00 | 0.47 | 0.17 | 85 | 1010.5 |
| 20260831073059 | 64 | 74 | 4.0 | 10.0 | 0.00 | 0.47 | 0.17 | 84 | 1010.7 |
| 20260831072557 | 64 | 88 | 4.0 | 11.0 | 0.00 | 0.47 | 0.17 | 84 | 1011.0 |
| 20260831072031 | 64 | 69 | 5.0 | 12.0 | 0.00 | 0.47 | 0.17 | 84 | 1011.1 |
| 20260831071527 | 64 | 76 | 5.0 | 12.0 | 0.00 | 0.47 | 0.17 | 84 | 1011.0 |